Home > Weather > Ceuta > Past weeks

Flag for Spain Past Weather in Ceuta, Ceuta, Spain — Yesterday and Last 2 Weeks

Now
77 °F

Clear.


Feels Like: 79 °F
Forecast: 70 / 84 °F
Wind: 7 mph from East

Location: Gibraltar Airport

Current Time: Jul 26, 2016 at 11:50:56 PM

Latest Report: Jul 26, 2016 at 10:50 PM


Visibility: N/A

Pressure: 30.04 "Hg

Humidity: 79%

Dew Point: 70 °F

Location of CeutaLocation

Past Weather in Ceuta — Graph

°F

Ceuta Temperature Yesterday

Maximum temperature yesterday: 81 °F (at 3:50 PM)
Minimum temperature yesterday: 73 °F (at 5:50 AM)
Average temperature yesterday: 76 °F

High & Low Weather Summary for the Past Weeks

 TemperatureHumidityPressure
High91 °F (Jul 21, 4:50 PM)94% (Jul 13, 9:50 PM)30.12 "Hg (Jul 13, 9:50 PM)
Low72 °F (Jul 12, 5:50 AM)30% (Jul 13, 1:50 AM)29.89 "Hg (Jul 12, 5:50 AM)
Average77 °F74%30.02 "Hg
* Reported Jul 11 9:50 PM — Jul 26 9:50 PM, Ceuta, Weather by CustomWeather, © 2016

Note: Actual official high and low records may vary slightly from our data, if they occured in-between our weather recording intervals... More about our weather records

Advertising

Ceuta Weather History for the Previous 24 Hours

Scroll right to see more
 ConditionsComfort  
Time TempWeatherWind HumidityBarometerVisibility
9:50 PM
Tue, Jul 26
77 °FSunny.3 mph83%30.04 "Hg10 mi
8:50 PM77 °FSunny.7 mph79%30.01 "Hg10 mi
7:50 PM79 °FSunny.8 mph74%30.01 "Hg10 mi
6:50 PM79 °FSunny.12 mph74%30.01 "Hg10 mi
5:50 PM81 °FSunny.12 mph66%30.01 "Hg10 mi
4:50 PM81 °FSunny.15 mph66%30.04 "Hg10 mi
3:50 PM81 °FSunny.14 mph62%30.07 "Hg10 mi
2:50 PM81 °FSunny.15 mph62%30.07 "Hg10 mi
1:50 PM81 °FSunny.13 mph62%30.07 "Hg10 mi
12:50 PM81 °FSunny.16 mph62%30.07 "Hg10 mi
11:50 AM79 °FSunny.13 mph65%30.07 "Hg10 mi
10:50 AM81 °FSunny.13 mph58%30.07 "Hg10 mi
9:50 AM79 °FSunny.13 mph61%30.07 "Hg10 mi
8:50 AM77 °FPassing clouds.14 mph69%30.07 "HgN/A
7:50 AM77 °FPassing clouds.12 mph69%30.04 "HgN/A
5:50 AM77 °FClear.16 mph69%30.04 "HgN/A
4:50 AM77 °FClear.15 mph74%30.04 "HgN/A
3:50 AM75 °FClear.13 mph78%30.04 "HgN/A
2:50 AM75 °FClear.13 mph83%30.07 "HgN/A
1:50 AM75 °FClear.16 mph83%30.07 "HgN/A
12:50 AM75 °FPassing clouds.12 mph89%30.07 "HgN/A
11:50 PM
Mon, Jul 25
75 °FOvercast.12 mph89%30.07 "HgN/A
Weather by CustomWeather, © 2016

See weather overviewHow to use our weather pages